Tiempo Historia de Beaver Island, MI

Change the Weather History Date:

Martes, Marzo 20, 2012

  Actual Average Record
Temperature  
Temperatura media 60 ° F -  
Temperatura máxima 75 ° F 36 ° F 75 ° F (2012)
Temperatura mínima 45 ° F 20 ° F -3 ° F (1986)
Degree Days  
Grados día de calefacción 5    
Growing Degree Days 10 (Base 50)    
Moisture  
Punto de rocío 53 ° F    
Average Humidity 70    
Maximum Humidity 88    
Minimum Humidity 48    
Precipitación  
Precipitación 0.00 pul - - ()
Presión al nivel del mar  
Presión al nivel del mar 29.99 pul    
Viento  
Velocidad del viento 7 mph (Sur)    
Velocidad máxima del viento 18 mph    
Max Gust Speed 28 mph    
Visibilidad 10 Millas    
Eventos      
Averages and records for this station are not official NWS values.
T = Trace of Precipitation, MM = Missing Value Source: NWS Daily Summary

Daily Weather History Graph

Daily Weather History Graph

Search for Another Location

Airport:

Trip Planner

Search our weather history database for the weather conditions in past years. The results will help you decide how hot, cold, wet, or windy it might be!

Date:

Astronomía

Mar. 20, 2012 Salida Puesta
Hora real 7:44 AM EDT 7:55 PM EDT
Crepúsculo civil 7:14 AM EDT 8:25 PM EDT
Crepúsculo náutico 6:39 AM EDT 9:00 PM EDT
Crepúsculo astronómico 6:04 AM EDT 9:35 PM EDT
Luna 6:30 AM EDT (3/20) 6:20 PM EDT (3/20)
Horas de luz 13h 10m
Horas de luz
12h 11m
Creciente menguante, 4% of the Moon is Illuminated
Mar 20
Creciente menguante
Mar 22
Nueva
Mar 30
Cuarto creciente
Abr 6
Luna llena
Abr 13
Cuarto menguante

Hourly Weather History & Observations

Hora (EDT) Temp. Vientos helados Punto de rocío Humedad Presión Visibilidad Wind Dir Velocidad del viento Velocidad de ráfagas Precip Eventos Condiciones
12:15 AM 45.9 ° F 42.9 ° F 41.4 ° F 84% 29.98 pul 10.0 mi Este 5.8 mph - N/A   Despejado
12:35 AM 46.0 ° F 43.1 ° F 41.5 ° F 84% 29.98 pul 10.0 mi Este 5.8 mph - N/A   Despejado
12:55 AM 46.6 ° F - 42.3 ° F 85% 29.97 pul 10.0 mi Este 5.8 mph - N/A   Despejado
1:15 AM 46.4 ° F 43.5 ° F 42.4 ° F 86% 29.97 pul 10.0 mi ESE 5.8 mph - N/A   Despejado
1:35 AM 47.5 ° F - 43.9 ° F 87% 29.97 pul 10.0 mi Sin viento Sin viento - N/A   Despejado
1:55 AM 48.6 ° F - 45.1 ° F 88% 29.97 pul 10.0 mi SE 6.9 mph - N/A   Despejado
2:15 AM 53.8 ° F - 50.4 ° F 88% 29.97 pul 10.0 mi SE 5.8 mph - N/A   Despejado
2:35 AM 55.9 ° F - 52.2 ° F 87% 29.97 pul 10.0 mi SE 3.5 mph - N/A   Despejado
2:55 AM 58.8 ° F - 54.0 ° F 84% 29.97 pul 10.0 mi SE 3.5 mph - N/A   Despejado
3:15 AM 60.4 ° F - 54.7 ° F 81% 29.97 pul 10.0 mi SSE 5.8 mph - N/A   Despejado
3:35 AM 62.8 ° F - 55.8 ° F 78% 29.97 pul 10.0 mi SSE 6.9 mph - N/A   Despejado
3:55 AM 63.1 ° F - 55.8 ° F 77% 29.97 pul 10.0 mi SSE 8.1 mph - N/A   Despejado
4:15 AM 63.0 ° F - 55.6 ° F 77% 29.97 pul 10.0 mi SSE 8.1 mph - N/A   Despejado
4:35 AM 62.8 ° F - 55.8 ° F 78% 29.98 pul 10.0 mi SSE 9.2 mph - N/A   Despejado
4:55 AM 62.8 ° F - 56.3 ° F 79% 29.98 pul 10.0 mi SSE 5.8 mph - N/A   Despejado
5:15 AM 63.1 ° F - 56.5 ° F 79% 29.98 pul 10.0 mi SSE 3.5 mph - N/A   Despejado
5:35 AM 64.4 ° F - 57.2 ° F 77% 29.98 pul 10.0 mi Sur 8.1 mph - N/A   Despejado
5:55 AM 64.6 ° F - 57.2 ° F 77% 29.98 pul 10.0 mi Sur 6.9 mph - N/A   Despejado
6:15 AM 63.9 ° F - 57.0 ° F 78% 29.99 pul 10.0 mi Sur 6.9 mph - N/A   Despejado
6:35 AM 63.5 ° F - 56.8 ° F 79% 29.99 pul 10.0 mi Sur 5.8 mph - N/A   Despejado
6:55 AM 62.6 ° F - 56.7 ° F 81% 30.00 pul 10.0 mi SSE 6.9 mph - N/A   Despejado
7:15 AM 61.7 ° F - 56.3 ° F 82% 30.00 pul 10.0 mi SSE 5.8 mph - N/A   Despejado
7:35 AM 61.2 ° F - 55.8 ° F 82% 30.00 pul 10.0 mi SE 4.6 mph - N/A   Despejado
7:55 AM 60.8 ° F - 55.8 ° F 83% 30.00 pul 10.0 mi SE 4.6 mph - N/A   Despejado
8:15 AM 61.2 ° F - 55.9 ° F 83% 30.00 pul 10.0 mi SSE 6.9 mph - N/A   Despejado
8:35 AM 62.2 ° F - 56.3 ° F 81% 30.00 pul 10.0 mi SSE 4.6 mph - N/A   Despejado
8:55 AM 62.6 ° F - 56.3 ° F 80% 30.00 pul 10.0 mi SSE 4.6 mph - N/A   Despejado
9:15 AM 63.7 ° F - 56.5 ° F 77% 30.01 pul 10.0 mi Sur 9.2 mph - N/A   Despejado
9:35 AM 64.0 ° F - 55.9 ° F 75% 30.01 pul 10.0 mi Sur 9.2 mph - N/A   Despejado
9:55 AM 64.6 ° F - 55.9 ° F 74% 30.01 pul 10.0 mi SSE 3.5 mph - N/A   Despejado
10:15 AM 65.3 ° F - 55.9 ° F 72% 30.01 pul 10.0 mi SSE 5.8 mph - N/A   Despejado
10:35 AM 64.6 ° F - 55.9 ° F 74% 30.01 pul 10.0 mi Sur 10.4 mph 18.4 mph N/A   Despejado
10:55 AM 67.3 ° F - 56.7 ° F 69% 30.01 pul 10.0 mi SSE 9.2 mph - N/A   Despejado
11:15 AM 69.8 ° F - 56.5 ° F 63% 30.01 pul 10.0 mi Sur 11.5 mph 17.3 mph N/A   Despejado
11:34 AM 70.3 ° F - 55.8 ° F 60% 30.01 pul 10.0 mi Sur 8.1 mph 16.1 mph N/A   Despejado
11:55 AM 72.3 ° F - 55.8 ° F 56% 30.01 pul 10.0 mi Sur 4.6 mph 16.1 mph N/A   Despejado
12:15 PM 73.2 ° F - 55.9 ° F 55% 30.01 pul 10.0 mi Sur 5.8 mph 17.3 mph N/A   Despejado
12:34 PM 74.1 ° F - 55.8 ° F 53% 30.01 pul 10.0 mi SSO 6.9 mph - N/A   Despejado
12:55 PM 75.4 ° F - 55.9 ° F 51% 30.00 pul 10.0 mi SSE 10.4 mph - N/A   Despejado
1:15 PM 74.5 ° F - 55.4 ° F 51% 30.00 pul 10.0 mi Sur 5.8 mph 16.1 mph N/A   Despejado
2:15 PM 74.3 ° F - 54.3 ° F 50% 30.01 pul 10.0 mi SSO 4.6 mph - N/A   Despejado
2:35 PM 73.8 ° F - 54.3 ° F 51% 30.02 pul 10.0 mi SO 10.4 mph 17.3 mph N/A   Despejado
2:55 PM 72.5 ° F - 53.1 ° F 50% 30.01 pul 10.0 mi SSO 16.1 mph 24.2 mph N/A   Despejado
3:15 PM 71.6 ° F - 52.9 ° F 52% 30.00 pul 10.0 mi SO 18.4 mph 23.0 mph N/A   Despejado
3:35 PM 70.3 ° F - 53.6 ° F 55% 30.00 pul 10.0 mi SO 16.1 mph 27.6 mph N/A   Despejado
3:55 PM 69.6 ° F - 53.4 ° F 56% 30.00 pul 10.0 mi SO 13.8 mph 26.5 mph N/A   Despejado
4:15 PM 69.1 ° F - 52.9 ° F 56% 29.99 pul 10.0 mi SO 12.7 mph 21.9 mph N/A   Despejado
4:34 PM 69.4 ° F - 52.9 ° F 56% 29.99 pul 10.0 mi SO 12.7 mph 20.7 mph N/A   Despejado
4:55 PM 68.9 ° F - 52.9 ° F 57% 29.99 pul 10.0 mi SO 13.8 mph 20.7 mph N/A   Despejado
5:15 PM 67.5 ° F - 53.1 ° F 60% 30.00 pul 10.0 mi SO 13.8 mph 24.2 mph N/A   Despejado
5:35 PM 64.9 ° F - 51.3 ° F 61% 30.00 pul 10.0 mi SO 13.8 mph 21.9 mph N/A   Despejado
5:55 PM 64.2 ° F - 50.5 ° F 61% 29.99 pul 10.0 mi SO 11.5 mph 17.3 mph N/A   Despejado
6:15 PM 63.7 ° F - 49.5 ° F 60% 30.00 pul 10.0 mi SO 9.2 mph - N/A   Despejado
6:35 PM 63.5 ° F - 48.2 ° F 57% 30.00 pul 10.0 mi OSO 10.4 mph 16.1 mph N/A   Despejado
6:55 PM 63.7 ° F - 47.3 ° F 55% 30.00 pul 10.0 mi SO 10.4 mph - N/A   Despejado
7:35 PM 66.7 ° F - 46.8 ° F 49% 30.01 pul 10.0 mi SO 10.4 mph 20.7 mph N/A   Despejado
7:55 PM 67.3 ° F - 46.8 ° F 48% 30.01 pul 10.0 mi SSO 9.2 mph 18.4 mph N/A   Despejado
8:15 PM 69.1 ° F - 46.9 ° F 45% 30.01 pul 10.0 mi SSO 11.5 mph 18.4 mph N/A   Despejado
8:35 PM 70.3 ° F - 47.3 ° F 44% 30.01 pul 10.0 mi SSO 10.4 mph 17.3 mph N/A   Despejado
8:55 PM 71.1 ° F - 47.5 ° F 43% 30.02 pul 10.0 mi SSO 8.1 mph - N/A   Despejado
9:15 PM 70.5 ° F - 47.3 ° F 44% 30.02 pul 10.0 mi SSO 9.2 mph - N/A   Despejado
9:35 PM 71.1 ° F - 47.3 ° F 43% 30.02 pul 10.0 mi Sur 5.8 mph - N/A   Despejado
9:55 PM 70.3 ° F - 46.9 ° F 43% 30.03 pul 10.0 mi Sur 4.6 mph - N/A   Despejado
10:15 PM 69.1 ° F - 46.8 ° F 45% 30.03 pul 10.0 mi Sur 5.8 mph - N/A   Despejado
10:35 PM 68.4 ° F - 46.8 ° F 46% 30.03 pul 10.0 mi Sur 3.5 mph - N/A   Despejado
10:55 PM 68.0 ° F - 46.9 ° F 47% 30.03 pul 10.0 mi SSE 4.6 mph - N/A   Despejado
11:15 PM 67.6 ° F - 47.1 ° F 48% 30.04 pul 10.0 mi Sur 5.8 mph - N/A   Despejado
11:35 PM 66.2 ° F - 46.6 ° F 49% 30.04 pul 10.0 mi SSE 4.6 mph - N/A   Despejado
11:55 PM 64.0 ° F - 46.2 ° F 52% 30.04 pul 10.0 mi SSE 3.5 mph - N/A   Despejado